Zurück zum Katalog

STARLINK-34604

AktivKommunikationVLEO
NORAD 64801·PAYLOAD·🇺🇸 United States

Gestartet Jul 16, 2025 von Vandenberg Space Force Base

Loading…

Nächste Überflüge (nächste 24 Stunden)

TLE

AktuellSource: CelesTrak SupGP

Epoche: Sep 14, 2026, 20:57 UTC

1 64801C 25150M   26257.87340278 -.00022523  00000+0 -18876-2 0  2577
2 64801  70.0025  17.4660 0003243 273.3499 115.1354 14.98338687    16

Verfolge STARLINK-34604 in Echtzeit mit AllMySat

Download on the App Store